When you browse on this site, cookies collect data to enhance your experience and personalize the content and advertising you see.
Visit our Privacy Policy to learn more. By continuing to use the site, you agree to this use of cookies and data.
  • In United Kingdom
  • List of Countries
  • For 7 days
  • Water Temperature
  • Satellite Maps
  • Weather Map
  • Weather Widgets
  • user-avatar
    Login

    Hourly Weather Mansa

    Today, 21 May, Tuesday

    Time Temperature Precipitation Wind Pressure Humidity
    00:00 +20°C° 0 mm 1 mps 660 mmHg 80%
    01:00 +19°C° 0 mm 1 mps 660 mmHg 83%
    02:00 +19°C° 0 mm 1 mps 660 mmHg 85%
    03:00 +18°C° 0 mm 1 mps 660 mmHg 87%
    04:00 +18°C° 0 mm 1 mps 660 mmHg 89%
    05:00 +17°C° 0 mm 2 mps 660 mmHg 91%
    06:00 +18°C° 0 mm 2 mps 661 mmHg 86%
    07:00 +19°C° 0 mm 2 mps 661 mmHg 82%
    08:00 +20°C° 0 mm 3 mps 662 mmHg 76%
    09:00 +22°C° 0 mm 3 mps 662 mmHg 70%
    10:00 +25°C° 0 mm 3 mps 662 mmHg 64%
    11:00 +27°C° 0 mm 3 mps 663 mmHg 58%
    12:00 +27°C° 0.1 mm 2 mps 662 mmHg 55%
    13:00 +28°C° 0.1 mm 2 mps 662 mmHg 53%
    14:00 +29°C° 0.1 mm 2 mps 661 mmHg 51%
    15:00 +28°C° 0.1 mm 2 mps 661 mmHg 56%
    16:00 +27°C° 0.1 mm 2 mps 660 mmHg 61%
    17:00 +26°C° 0.1 mm 1 mps 660 mmHg 66%
    18:00 +24°C° 0 mm 1 mps 660 mmHg 70%
    19:00 +23°C° 0 mm 1 mps 660 mmHg 74%
    20:00 +21°C° 0 mm 1 mps 660 mmHg 78%
    21:00 +21°C° 0 mm 1 mps 660 mmHg 78%
    22:00 +19°C° 0 mm 2 mps 660 mmHg 79%
    23:00 +19°C° 0 mm 2 mps 661 mmHg 80%

    Tomorrow, 22 May, Wednesday

    Time Temperature Precipitation Wind Pressure Humidity
    00:00 +18°C° 0 mm 2 mps 660 mmHg 82%
    01:00 +18°C° 0 mm 2 mps 660 mmHg 84%
    02:00 +18°C° 0 mm 2 mps 660 mmHg 86%
    03:00 +17°C° 0 mm 2 mps 660 mmHg 86%
    04:00 +17°C° 0 mm 2 mps 660 mmHg 87%
    05:00 +17°C° 0 mm 2 mps 660 mmHg 87%
    06:00 +18°C° 0 mm 3 mps 661 mmHg 82%
    07:00 +19°C° 0 mm 3 mps 661 mmHg 77%
    08:00 +20°C° 0 mm 4 mps 662 mmHg 72%
    09:00 +22°C° 0 mm 4 mps 662 mmHg 66%
    10:00 +25°C° 0 mm 4 mps 663 mmHg 60%
    11:00 +26°C° 0 mm 3 mps 663 mmHg 55%
    12:00 +27°C° 0 mm 3 mps 663 mmHg 52%
    13:00 +28°C° 0 mm 3 mps 662 mmHg 50%
    14:00 +29°C° 0 mm 3 mps 662 mmHg 48%
    15:00 +28°C° 0 mm 2 mps 661 mmHg 52%
    16:00 +27°C° 0 mm 2 mps 661 mmHg 56%
    17:00 +26°C° 0 mm 1 mps 660 mmHg 60%
    18:00 +25°C° 0 mm 1 mps 660 mmHg 63%
    19:00 +23°C° 0 mm 1 mps 661 mmHg 67%
    20:00 +21°C° 0 mm 1 mps 661 mmHg 70%
    21:00 +20°C° 0 mm 2 mps 661 mmHg 71%
    22:00 +20°C° 0 mm 2 mps 661 mmHg 71%
    23:00 +19°C° 0 mm 3 mps 661 mmHg 72%

    Day after tomorrow, 23 May, Thursday

    Time Temperature Precipitation Wind Pressure Humidity
    00:00 +19°C° 0 mm 3 mps 661 mmHg 72%
    01:00 +18°C° 0 mm 3 mps 661 mmHg 73%
    02:00 +17°C° 0 mm 3 mps 661 mmHg 73%
    03:00 +17°C° 0 mm 3 mps 661 mmHg 71%
    04:00 +17°C° 0 mm 3 mps 661 mmHg 69%
    05:00 +16°C° 0 mm 3 mps 661 mmHg 67%
    06:00 +17°C° 0 mm 3 mps 661 mmHg 64%
    07:00 +18°C° 0 mm 4 mps 662 mmHg 60%
    08:00 +18°C° 0 mm 4 mps 662 mmHg 56%
    09:00 +20°C° 0 mm 4 mps 663 mmHg 53%
    10:00 +22°C° 0 mm 3 mps 663 mmHg 50%
    11:00 +25°C° 0 mm 3 mps 663 mmHg 47%
    12:00 +26°C° 0 mm 3 mps 663 mmHg 44%
    13:00 +27°C° 0 mm 3 mps 662 mmHg 42%
    14:00 +28°C° 0 mm 2 mps 661 mmHg 40%
    15:00 +27°C° 0 mm 2 mps 661 mmHg 44%
    16:00 +26°C° 0 mm 2 mps 660 mmHg 49%
    17:00 +25°C° 0 mm 1 mps 660 mmHg 53%
    18:00 +23°C° 0 mm 1 mps 660 mmHg 55%
    19:00 +21°C° 0 mm 1 mps 660 mmHg 57%
    20:00 +20°C° 0 mm 1 mps 661 mmHg 59%
    21:00 +18°C° 0 mm 2 mps 661 mmHg 60%
    22:00 +18°C° 0 mm 2 mps 661 mmHg 61%
    23:00 +17°C° 0 mm 3 mps 661 mmHg 62%

    24 May, Friday

    Time Temperature Precipitation Wind Pressure Humidity
    00:00 +17°C° 0 mm 3 mps 661 mmHg 62%
    01:00 +16°C° 0 mm 2 mps 661 mmHg 62%
    02:00 +16°C° 0 mm 2 mps 660 mmHg 62%
    03:00 +15°C° 0 mm 2 mps 660 mmHg 62%
    04:00 +14°C° 0 mm 3 mps 660 mmHg 61%
    05:00 +14°C° 0 mm 3 mps 660 mmHg 61%
    06:00 +16°C° 0 mm 3 mps 661 mmHg 60%
    07:00 +16°C° 0 mm 3 mps 662 mmHg 59%
    08:00 +17°C° 0 mm 3 mps 662 mmHg 58%
    09:00 +19°C° 0 mm 3 mps 663 mmHg 55%
    10:00 +22°C° 0 mm 3 mps 663 mmHg 52%
    11:00 +25°C° 0 mm 3 mps 663 mmHg 49%
    12:00 +26°C° 0 mm 3 mps 663 mmHg 46%
    13:00 +26°C° 0 mm 3 mps 662 mmHg 43%
    14:00 +27°C° 0 mm 3 mps 662 mmHg 41%
    15:00 +26°C° 0 mm 2 mps 661 mmHg 45%
    16:00 +25°C° 0 mm 2 mps 661 mmHg 49%
    17:00 +25°C° 0 mm 1 mps 661 mmHg 53%
    18:00 +23°C° 0 mm 1 mps 661 mmHg 56%
    19:00 +21°C° 0 mm 1 mps 661 mmHg 59%
    20:00 +19°C° 0 mm 1 mps 661 mmHg 61%
    21:00 +18°C° 0 mm 2 mps 661 mmHg 64%
    22:00 +17°C° 0 mm 2 mps 661 mmHg 66%
    23:00 +17°C° 0 mm 2 mps 662 mmHg 69%

    25 May, Saturday

    Time Temperature Precipitation Wind Pressure Humidity
    00:00 +16°C° 0 mm 2 mps 661 mmHg 70%
    01:00 +16°C° 0 mm 2 mps 661 mmHg 71%
    02:00 +15°C° 0 mm 2 mps 661 mmHg 72%
    03:00 +14°C° 0 mm 3 mps 661 mmHg 73%
    04:00 +14°C° 0 mm 3 mps 661 mmHg 73%
    05:00 +14°C° 0 mm 3 mps 661 mmHg 74%
    06:00 +16°C° 0 mm 3 mps 661 mmHg 75%
    07:00 +17°C° 0 mm 4 mps 662 mmHg 75%
    08:00 +18°C° 0 mm 4 mps 663 mmHg 76%
    09:00 +20°C° 0 mm 4 mps 663 mmHg 69%
    10:00 +22°C° 0 mm 4 mps 663 mmHg 62%
    11:00 +25°C° 0 mm 4 mps 663 mmHg 55%
    12:00 +26°C° 0 mm 3 mps 663 mmHg 52%
    13:00 +27°C° 0 mm 3 mps 662 mmHg 49%
    14:00 +28°C° 0 mm 3 mps 661 mmHg 47%
    15:00 +27°C° 0 mm 2 mps 661 mmHg 51%
    16:00 +26°C° 0 mm 2 mps 661 mmHg 55%
    17:00 +25°C° 0 mm 2 mps 660 mmHg 59%
    18:00 +24°C° 0 mm 2 mps 660 mmHg 64%
    19:00 +21°C° 0 mm 2 mps 661 mmHg 70%
    20:00 +19°C° 0 mm 2 mps 661 mmHg 75%
    21:00 +19°C° 0 mm 2 mps 661 mmHg 77%
    22:00 +18°C° 0 mm 2 mps 661 mmHg 79%
    23:00 +18°C° 0 mm 3 mps 661 mmHg 82%

    26 May, Sunday

    Time Temperature Precipitation Wind Pressure Humidity
    00:00 +18°C° 0 mm 3 mps 661 mmHg 83%
    01:00 +17°C° 0 mm 3 mps 661 mmHg 85%
    02:00 +17°C° 0 mm 3 mps 661 mmHg 86%
    03:00 +16°C° 0 mm 3 mps 661 mmHg 87%
    04:00 +16°C° 0 mm 3 mps 661 mmHg 87%
    05:00 +16°C° 0 mm 3 mps 661 mmHg 87%
    06:00 +17°C° 0 mm 3 mps 662 mmHg 84%
    07:00 +18°C° 0 mm 4 mps 662 mmHg 81%
    08:00 +18°C° 0 mm 4 mps 663 mmHg 78%
    09:00 +20°C° 0 mm 4 mps 663 mmHg 71%
    10:00 +22°C° 0 mm 4 mps 663 mmHg 64%
    11:00 +25°C° 0 mm 4 mps 663 mmHg 58%
    12:00 +26°C° 0 mm 3 mps 662 mmHg 55%
    13:00 +27°C° 0 mm 3 mps 662 mmHg 52%
    14:00 +28°C° 0 mm 3 mps 661 mmHg 50%
    15:00 +27°C° 0 mm 2 mps 661 mmHg 54%
    16:00 +26°C° 0 mm 2 mps 660 mmHg 58%
    17:00 +25°C° 0 mm 2 mps 660 mmHg 62%
    18:00 +24°C° 0 mm 2 mps 660 mmHg 67%
    19:00 +21°C° 0 mm 2 mps 660 mmHg 72%
    20:00 +19°C° 0 mm 2 mps 661 mmHg 76%
    21:00 +19°C° 0 mm 2 mps 661 mmHg 78%
    22:00 +19°C° 0 mm 2 mps 661 mmHg 80%
    23:00 +18°C° 0 mm 3 mps 661 mmHg 82%
    Show more